Weather Service Report


735 
ASUS45 KCYS 232210
RWRWY 

WYOMING REGIONAL WEATHER ROUNDUP
NATIONAL WEATHER SERVICE CHEYENNE WY
400 PM MDT TUE SEP 23 2014

NOTE:  "FAIR" INDICATES FEW OR NO CLOUDS BELOW 12,000 FEET
WITH NO SIGNIFICANT WEATHER AND/OR OBSTRUCTIONS TO VISIBILITY.

WYZ001-232300-
YELLOWSTONE NATIONAL PARK
  
CITY           SKY/WX    TMP DP  RH WIND       PRES   REMARKS
LK YELLOWSTONE   N/A     57  47  69 E3        30.33F                  
W YELLOWSTONE  NOT AVBL                                               

$$
WYZ002>013-054>058-071-098>099-232300-
NORTHERN WYOMING
  
CITY           SKY/WX    TMP DP  RH WIND       PRES   REMARKS
JACKSON        MOSUNNY   70  48  46 CALM      30.24F                  
CODY           PTSUNNY   75  43  31 W6        30.09S                  
GREYBULL       SUNNY     82  42  24 CALM      30.01F                  
WORLAND        SUNNY     81  43  26 CALM      30.03F                  
SHERIDAN       SUNNY     82  45  27 NW14      30.01S                  
BUFFALO        MOSUNNY   78  42  27 N16G22    30.08S                  
GILLETTE       LGT RAIN  81  44  27 NW16G23   30.01S                  
HULETT         FAIR      79  45  29 MISG      30.01                   
NEWCASTLE      FAIR      79  41  25 NW12      30.00                   

$$
WYZ014>020-022>026-101>103-232300-
CENTRAL WYOMING
  
CITY           SKY/WX    TMP DP  RH WIND       PRES   REMARKS
BIG PINEY      PTSUNNY   72  38  29 VRB3      30.26S                  
PINEDALE       CLEAR     70  37  30 W10G17    30.26F                  
DUBOIS         FAIR      70  36  28 N15G22    30.24S                  
LANDER         MOSUNNY   79  39  23 E7        30.11S                  
RIVERTON       SUNNY     77  38  24 VRB7      30.12F                  
CASPER         LGT RAIN  74  41  30 NW12G25   30.10S                  
DOUGLAS        CLOUDY    80  40  23 NW18      30.07S                  

$$
WYZ021-027>030-104>119-232300-
SOUTHERN WYOMING
  
CITY           SKY/WX    TMP DP  RH WIND       PRES   REMARKS
EVANSTON       SUNNY     72  40  31 W12G22    30.29S                  
KEMMERER       PTCLDY    70  41  35 W15G24    30.30S                  
FORT BRIDGER   MOCLDY    72  41  32 NW13G22   30.30F                  
ROCK SPRINGS   MOSUNNY   72  41  32 W22       30.24F                  
DIXON          MOCLDY    71  46  39 W9G17     30.26F                  
RAWLINS        SUNNY     72  37  28 W14       30.22S                  
SARATOGA       MOCLDY    70  39  32 W21       30.26S                  
LARAMIE        PTSUNNY   67  40  37 W16       30.23S                  
CHEYENNE       PTSUNNY   72  38  29 NW15G23   30.16S                  
TORRINGTON     MOSUNNY   84  43  23 N9G21     29.99F                  
PINE BLUFFS    FAIR      77  37  24 NW18G25   30.09S                  

$$

Return to Home page


Western Regional Climate Center, wrcc@dri.edu